[[{"header":{"parameterUnit":"m.s-1","parameterCategory":1,"la1":30.2991,"la2":30.254,"lo1":-89.0895,"lo2":-89.0444,"dy":0.0017,"dx":0.0017,"nx":28,"ny":28,"refTime":"2025-06-18T21:00:00:Z","depth":0,"parameterNumber":2,"parameterNumberName":"U-component_of_WINDS"},"data":[0,0,0,0,0,0,0,0,0,0,0,0,0,0,0,0,0,0,0,0,0,0,0,0,0,0,0,0,0,0,0,0,0,0,0,0,0,0,0,0,0,0,0,0,0,0,0,0,0,0,0,0,0,0,0,0,0,0,2.2127,2.2127,0,2.2159,2.2159,2.2159,2.2177,2.2177,2.2177,2.2177,2.2213,2.2214,2.2215,0,0,0,0,0,0,0,0,0,0,0,0,0,2.2084,2.2085,2.2127,2.2127,2.2128,2.2159,2.2159,2.216,2.2177,2.2177,2.2177,2.2177,2.2212,2.2214,2.2215,0,0,0,0,0,0,0,0,0,0,0,0,0,2.2108,2.2085,2.2127,2.214,2.2142,2.2159,2.2159,2.216,2.2177,2.2177,2.2177,2.2177,2.2212,2.2213,2.2215,2.2222,0,0,2.2219,2.2219,0,0,0,0,0,0,0,0,2.2107,2.2109,2.2138,2.2139,2.2141,2.2164,2.2157,2.2181,2.2177,2.2164,2.2177,2.2177,2.2197,2.2199,2.2205,2.2224,2.2225,2.2219,2.222,2.222,2.2221,0,0,0,0,0,0,0,2.2105,2.2108,2.214,2.2138,2.214,2.2145,2.2149,2.2162,2.218,2.2165,2.2166,2.217,2.2198,2.2204,2.2206,2.2226,2.2219,2.222,2.2221,2.2222,2.2252,2.2252,0,0,0,0,0,0,2.2101,2.2107,2.2138,2.214,2.2123,2.2146,2.215,2.2157,2.2179,2.2183,2.217,2.217,2.2202,2.2205,2.2207,2.2218,2.222,2.2222,2.2222,2.2252,2.2252,2.2252,0,0,0,0,0,0,2.21,2.2103,2.2137,2.2124,2.2129,2.2147,2.2154,2.2157,2.2163,2.2183,2.2186,2.2172,2.2202,2.2206,2.2218,2.2219,2.2222,2.2224,2.2252,2.2252,2.2252,2.2238,0,0,0,0,0,0,2.2098,2.2103,2.2105,2.2124,2.2129,2.2146,2.2154,2.2158,2.2165,2.2167,2.2187,2.219,2.2202,2.2216,2.2219,2.2221,2.2225,2.2252,2.2252,2.2252,2.2238,2.2237,2.2236,0,0,0,0,0,2.2097,2.21,2.2105,2.2109,2.2132,2.2146,2.2149,2.2162,2.2165,2.2168,2.2181,2.2189,2.2218,2.2217,2.2221,2.2223,2.2252,2.2252,2.2252,2.2238,2.2237,2.2236,0,0,0,0,0,0,2.2082,2.2103,2.2108,2.2118,2.213,2.2149,2.2153,2.2161,2.2173,2.2174,2.219,2.2195,2.2206,2.2216,2.2214,2.2232,2.2236,2.2237,2.2224,2.2223,2.2223,2.222,2.2226,0,0,0,0,0,2.2079,2.2088,2.2106,2.2113,2.2119,2.2135,2.2141,2.215,2.2164,2.2169,2.2183,2.2197,2.2209,2.2217,2.2229,2.224,2.2245,2.2243,2.2242,2.2241,2.2242,2.2249,2.2248,2.2252,2.2252,2.2252,0,0,2.2074,2.2087,2.2092,2.211,2.2121,2.213,2.2139,2.2149,2.2156,2.2171,2.2184,2.2194,2.2211,2.2222,2.2228,2.2231,2.2242,2.2241,2.2241,2.2242,2.2249,2.2248,2.2248,2.2252,2.2252,2.2252,0,0,2.2071,2.2081,2.2088,2.2098,2.2114,2.2124,2.2126,2.2144,2.2151,2.2164,2.2176,2.2186,2.2206,2.2218,2.2226,2.2227,2.2236,2.2231,2.2226,2.2233,2.2233,2.2232,2.2233,2.2233,2.2232,2.2232,2.2232,0,2.2063,2.2077,2.209,2.2099,2.2107,2.2121,2.2128,2.2138,2.2157,2.2163,2.2166,2.2192,2.2204,2.2219,2.2219,2.2226,2.2229,2.2229,2.2231,2.2231,2.2231,2.2232,2.2232,2.2231,2.2231,2.2231,2.2231,0,2.2067,2.2077,2.2081,2.2098,2.2106,2.2115,2.213,2.2137,2.2146,2.2156,2.217,2.2185,2.22,2.2205,2.2213,2.2221,2.2222,2.2228,2.2233,2.223,2.2231,2.2232,2.223,2.223,2.223,2.2231,0,0,2.2054,2.2079,2.208,2.2088,2.2107,2.2115,2.2124,2.2139,2.2145,2.2158,2.2167,2.2184,2.219,2.22,2.221,2.2215,2.2216,2.2221,2.2221,2.2219,2.2226,2.2221,2.2221,2.2222,2.2222,2.2222,2.2224,0,2.2053,2.2069,2.2082,2.2094,2.2103,2.2116,2.2125,2.2137,2.2148,2.2159,2.2171,2.2183,2.2189,2.2195,2.2201,2.2214,2.2217,2.2215,2.2231,2.2231,2.2226,2.2222,2.2217,2.2218,2.2225,2.2225,2.2225,0,2.2054,2.2066,2.2078,2.2096,2.2101,2.2107,2.2122,2.2132,2.2147,2.2155,2.2165,2.2176,2.2188,2.2192,2.2208,2.2206,2.2214,2.2221,2.2222,2.2224,2.2228,2.2223,2.2218,2.2219,2.2226,2.2226,2.2226,0,2.2043,2.2062,2.2072,2.2079,2.21,2.2105,2.2114,2.2129,2.2138,2.2151,2.2157,2.2172,2.218,2.2191,2.2206,2.2208,2.2221,2.2227,2.2229,2.2228,2.2231,2.223,2.2227,2.2236,2.2236,2.2236,2.2236,0,2.204,2.2047,2.2068,2.2074,2.2083,2.2098,2.2106,2.2117,2.213,2.214,2.2153,2.2161,2.218,2.2191,2.2203,2.2215,2.2219,2.2226,2.2229,2.2225,2.2224,2.223,2.223,2.2236,2.2236,2.2236,2.2236,0,2.2029,2.2043,2.2055,2.2074,2.2079,2.2085,2.2102,2.2109,2.212,2.2132,2.2136,2.2154,2.2168,2.2184,2.2203,2.2211,2.2223,2.2227,2.2217,2.2219,2.222,2.2219,2.222,2.2221,2.2229,2.2229,2.2229,0,2.2027,2.2032,2.2052,2.2059,2.2067,2.2078,2.2086,2.2102,2.211,2.2128,2.2134,2.2148,2.2161,2.2183,2.2198,2.2214,2.2219,2.2218,2.2221,2.2216,2.2219,2.2218,2.2219,2.2217,2.2216,2.2216,2.2216,0,2.202,2.2027,2.2038,2.2051,2.2061,2.2073,2.2085,2.209,2.2108,2.2117,2.2131,2.2141,2.216,2.2175,2.2192,2.2203,2.2213,2.2215,2.2216,2.2212,2.2206,2.2209,2.2214,2.2215,2.2215,2.2215,2.2215,2.2215,2.2013,2.2019,2.2034,2.2046,2.2057,2.2068,2.2076,2.2088,2.21,2.2116,2.2125,2.2139,2.2155,2.2179,2.219,2.2202,2.2205,2.2207,2.2207,2.2207,2.2206,2.2204,2.2205,2.2205,2.2205,2.2205,2.2205,0,2.2007,2.2018,2.2029,2.2045,2.2055,2.2063,2.2077,2.2085,2.2097,2.2111,2.2123,2.2139,2.2154,2.2171,2.2187,2.2193,2.2198,2.2197,2.2196,2.2199,2.2202,2.2199,2.2192,2.2192,2.2192,2.2192,2.2192,2.2192,2.2005,2.2016,2.2024,2.2041,2.2051,2.2064,2.2072,2.2083,2.2094,2.2111,2.2123,2.2134,2.215,2.2167,2.2181,2.2186,2.2191,2.2188,2.2194,2.2197,2.2198,2.2199,2.2197,2.2189,2.2189,2.219,2.219,2.219]},{"header":{"parameterUnit":"m.s-1","parameterCategory":1,"la1":30.2991,"la2":30.254,"lo1":-89.0895,"lo2":-89.0444,"dy":0.0017,"dx":0.0017,"nx":28,"ny":28,"refTime":"2025-06-18T21:00:00:Z","depth":0,"parameterNumber":3,"parameterNumberName":"V-component_of_WINDS"},"data":[0,0,0,0,0,0,0,0,0,0,0,0,0,0,0,0,0,0,0,0,0,0,0,0,0,0,0,0,0,0,0,0,0,0,0,0,0,0,0,0,0,0,0,0,0,0,0,0,0,0,0,0,0,0,0,0,0,0,2.2677,2.2677,0,2.272,2.2721,2.2721,2.2722,2.2722,2.2721,2.2721,2.2763,2.2764,2.2766,0,0,0,0,0,0,0,0,0,0,0,0,0,2.2589,2.2591,2.2677,2.2677,2.2678,2.272,2.2721,2.2722,2.2722,2.2722,2.2721,2.272,2.2762,2.2764,2.2766,0,0,0,0,0,0,0,0,0,0,0,0,0,2.2629,2.2591,2.2677,2.2683,2.2684,2.272,2.2721,2.2722,2.2722,2.2722,2.2721,2.272,2.2762,2.2764,2.2766,2.2798,0,0,2.2774,2.2775,0,0,0,0,0,0,0,0,2.2627,2.2633,2.2682,2.2683,2.2684,2.2715,2.2706,2.2747,2.2723,2.2708,2.2721,2.272,2.2747,2.2751,2.2761,2.28,2.2802,2.2774,2.2776,2.2777,2.2777,0,0,0,0,0,0,0,2.2624,2.2631,2.2694,2.2682,2.2684,2.2683,2.2687,2.2713,2.2732,2.2709,2.2709,2.2715,2.2748,2.2759,2.2762,2.2802,2.2774,2.2776,2.2778,2.2779,2.2865,2.2866,0,0,0,0,0,0,2.2621,2.2628,2.2693,2.2695,2.2653,2.2685,2.269,2.2706,2.2731,2.2734,2.2715,2.2714,2.2755,2.2759,2.2763,2.2799,2.2777,2.2779,2.278,2.2864,2.2865,2.2866,0,0,0,0,0,0,2.2619,2.2627,2.2691,2.2662,2.267,2.2687,2.2705,2.2707,2.2718,2.2736,2.2739,2.2723,2.2754,2.276,2.2789,2.2801,2.278,2.2782,2.2863,2.2865,2.2866,2.2873,0,0,0,0,0,0,2.2616,2.2626,2.2639,2.2662,2.2672,2.2717,2.2706,2.2709,2.2722,2.2722,2.2744,2.2747,2.2754,2.2785,2.2791,2.2804,2.2784,2.2862,2.2864,2.2865,2.2872,2.2874,2.2877,0,0,0,0,0,2.2613,2.264,2.264,2.2648,2.2689,2.2718,2.2723,2.2731,2.2724,2.2736,2.2747,2.2746,2.2799,2.2788,2.2795,2.2809,2.2861,2.2863,2.2865,2.2871,2.2874,2.2877,0,0,0,0,0,0,2.2618,2.2643,2.2644,2.2679,2.2696,2.2718,2.2734,2.2735,2.2754,2.2753,2.2761,2.2766,2.2794,2.2804,2.2792,2.2838,2.2829,2.2832,2.2831,2.2834,2.2836,2.2833,2.2786,0,0,0,0,0,2.2623,2.2645,2.2666,2.2694,2.2703,2.2717,2.273,2.2735,2.2752,2.276,2.2773,2.279,2.2809,2.2822,2.2842,2.2873,2.2877,2.2886,2.2888,2.289,2.2893,2.2907,2.2911,2.2872,2.2872,2.2872,0,0,2.2634,2.265,2.2664,2.2696,2.271,2.2731,2.2723,2.2747,2.2762,2.2763,2.279,2.2801,2.2819,2.2849,2.2862,2.2858,2.2904,2.2893,2.2894,2.2895,2.2909,2.2913,2.2916,2.2874,2.2873,2.2873,0,0,2.2663,2.2679,2.2704,2.2717,2.2738,2.2747,2.2753,2.2774,2.2781,2.2808,2.2809,2.2826,2.2861,2.2874,2.2885,2.2916,2.2915,2.2922,2.2934,2.2948,2.2951,2.2954,2.2963,2.2966,2.2925,2.2925,2.2925,0,2.2674,2.2707,2.2716,2.2739,2.2751,2.2753,2.2776,2.2789,2.2815,2.2823,2.2818,2.286,2.2873,2.2904,2.2911,2.2921,2.2926,2.2919,2.295,2.2953,2.2956,2.2964,2.2968,2.2925,2.2925,2.2925,2.2925,0,2.2717,2.274,2.2757,2.2781,2.2796,2.2819,2.283,2.2843,2.2846,2.2854,2.2881,2.2896,2.2918,2.2925,2.2929,2.2956,2.2952,2.2949,2.2939,2.296,2.2968,2.2972,2.2926,2.2926,2.2926,2.2926,0,0,2.2752,2.278,2.2786,2.2796,2.2818,2.2835,2.2856,2.2878,2.2888,2.2905,2.2922,2.295,2.2946,2.2959,2.2963,2.2976,2.2996,2.297,2.2971,2.2973,2.3024,2.3026,2.303,2.2996,2.2997,2.2997,2.3022,0,2.2783,2.2822,2.283,2.2863,2.2882,2.2883,2.2902,2.2916,2.2924,2.2941,2.2949,2.2968,2.2963,2.297,2.2982,2.2991,2.3006,2.299,2.301,2.301,2.3004,2.3034,2.3037,2.3059,2.3025,2.3026,2.3026,0,2.2824,2.2842,2.2877,2.2894,2.2903,2.2919,2.2938,2.2954,2.2969,2.2974,2.2987,2.2989,2.3009,2.2999,2.3026,2.3014,2.3023,2.3028,2.3029,2.3031,2.3019,2.3035,2.3067,2.307,2.3032,2.3032,2.3031,0,2.2843,2.2876,2.2901,2.2909,2.2931,2.2942,2.2951,2.2966,2.2977,2.2992,2.2999,2.3017,2.3027,2.3039,2.3046,2.3038,2.3071,2.3062,2.3074,2.3074,2.308,2.308,2.3113,2.3088,2.3088,2.3088,2.3088,0,2.2875,2.2897,2.2909,2.2924,2.2947,2.2954,2.2976,2.2985,2.2997,2.3013,2.3015,2.3029,2.3037,2.3052,2.3057,2.3077,2.3081,2.3084,2.3085,2.3083,2.3083,2.3088,2.3086,2.3089,2.3089,2.3088,2.3088,0,2.29,2.291,2.2936,2.2954,2.2958,2.2974,2.2988,2.3002,2.3009,2.3028,2.3033,2.3044,2.3061,2.3069,2.309,2.3093,2.3116,2.3116,2.311,2.311,2.3121,2.3119,2.3158,2.3163,2.3136,2.3136,2.3136,0,2.292,2.2936,2.2954,2.2965,2.2974,2.2992,2.3003,2.301,2.3021,2.3038,2.3049,2.3067,2.3081,2.3108,2.3117,2.3132,2.3132,2.3145,2.3135,2.3132,2.313,2.3129,2.3129,2.3146,2.3146,2.3147,2.3147,0,2.2952,2.2956,2.2972,2.299,2.3003,2.3017,2.303,2.3039,2.3047,2.306,2.3077,2.3088,2.3109,2.3126,2.3141,2.3149,2.3149,2.315,2.3153,2.3151,2.3146,2.3147,2.3114,2.3149,2.3149,2.3149,2.3148,2.3148,2.2974,2.2987,2.3002,2.3019,2.303,2.3042,2.3055,2.3063,2.3078,2.3096,2.3099,2.3117,2.313,2.3151,2.3159,2.3172,2.3169,2.3174,2.3175,2.3176,2.3176,2.3145,2.3176,2.3175,2.3175,2.3175,2.3175,0,2.3005,2.3014,2.303,2.3048,2.3061,2.306,2.3075,2.3085,2.3101,2.3114,2.3127,2.3146,2.3161,2.3171,2.3186,2.3195,2.3195,2.3198,2.3197,2.3198,2.3179,2.3174,2.3198,2.3198,2.3198,2.3198,2.3198,2.3198,2.3022,2.3044,2.3049,2.3075,2.3083,2.3101,2.3109,2.312,2.3129,2.315,2.3163,2.3169,2.318,2.3195,2.3208,2.3211,2.3215,2.3219,2.3221,2.3202,2.32,2.3198,2.3193,2.322,2.322,2.3239,2.3239,2.3239]}]]